Weather History for KLDM - July, 2013

Change the Weather History Date:

Sunday, July 7, 2013

  Actual Average Record
Temperature  
Mean Temperature 76 °F -  
Max Temperature 81 °F 81 °F 98 °F (1988)
Min Temperature 70 °F 56 °F 42 °F (1983)
Cooling Degree Days 10    
Growing Degree Days 26 (Base 50)    
Moisture  
Dew Point 66 °F    
Average Humidity 75    
Maximum Humidity 84    
Minimum Humidity 61    
Precipitation  
Precipitation 0.00 in - - ()
Sea Level Pressure  
Sea Level Pressure 29.98 in    
Wind  
Wind Speed 6 mph (SSW)    
Max Wind Speed 12 mph    
Max Gust Speed -    
Visibility 8 miles    
Events      
Averages and records for this station are not official NWS values.
T = Trace of Precipitation, MM = Missing Value Source: NWS Daily Summary

Daily Weather History Graph

Daily Weather History Graph

Search for Another Location

Airport or City:

Trip Planner

Search our weather history database for the weather conditions in past years. The results will help you decide how hot, cold, wet, or windy it might be!

Date:

Astronomy

Jul. 07, 2013 Rise Set
Actual Time 6:10 AM EDT 9:30 PM EDT
Civil Twilight 5:35 AM EDT 10:05 PM EDT
Nautical Twilight 4:48 AM EDT 10:52 PM EDT
Astronomical Twilight 3:50 AM EDT 11:49 PM EDT
Moon 5:48 AM EDT (7/7) 8:50 PM EDT (7/7)
Length of Visible Light 16h 30m
Length of Day
15h 19m
Waning Crescent, 0% of the Moon is Illuminated
Jul 7
Waning Crescent
Jul 8
New
Jul 15
First Quarter
Jul 22
Full
Jul 29
Last Quarter

Hourly Weather History & Observations

Time (EDT) Temp. Heat Index Dew Point Humidity Pressure Visibility Wind Dir Wind Speed Gust Speed Precip Events Conditions
12:15 AM 70.3 °F - 65.3 °F 84% 30.02 in 10.0 mi SW 3.5 mph - N/A   Clear
12:35 AM 71.8 °F - 63.9 °F 76% 30.02 in 10.0 mi South 5.8 mph - N/A   Clear
12:55 AM 71.4 °F - 63.9 °F 77% 30.01 in 10.0 mi SSW 6.9 mph - N/A   Clear
1:15 AM 70.3 °F - 63.5 °F 79% 30.01 in 10.0 mi SSW 4.6 mph - N/A   Clear
1:36 AM 70.3 °F - 63.7 °F 79% 30.00 in 10.0 mi SSW 5.8 mph - N/A   Clear
1:55 AM 70.3 °F - 63.9 °F 80% 30.00 in 10.0 mi SSW 6.9 mph - N/A   Clear
2:15 AM 70.3 °F - 64.4 °F 81% 29.99 in 10.0 mi SSW 4.6 mph - N/A   Clear
2:35 AM 70.3 °F - 64.4 °F 81% 29.99 in 7.0 mi SSW 6.9 mph - N/A   Clear
2:55 AM 70.3 °F - 64.0 °F 80% 29.99 in 7.0 mi SW 6.9 mph - N/A   Clear
3:15 AM 70.9 °F - 64.6 °F 80% 29.98 in 10.0 mi SW 8.1 mph - N/A   Clear
3:35 AM 70.3 °F - 64.4 °F 81% 29.97 in 10.0 mi SSW 6.9 mph - N/A   Clear
3:55 AM 70.3 °F - 64.6 °F 82% 29.98 in 7.0 mi SSW 3.5 mph - N/A   Clear
4:15 AM 70.3 °F - 63.9 °F 80% 29.98 in 7.0 mi SSW 4.6 mph - N/A   Clear
4:35 AM 70.3 °F - 64.6 °F 82% 29.98 in 7.0 mi SSW 4.6 mph - N/A   Clear
4:55 AM 70.3 °F - 64.6 °F 82% 29.98 in 7.0 mi SSW 9.2 mph - N/A   Clear
5:15 AM 70.3 °F - 64.9 °F 83% 29.97 in 7.0 mi SW 6.9 mph - N/A   Clear
5:35 AM 70.3 °F - 65.3 °F 84% 29.98 in 7.0 mi South 3.5 mph - N/A   Clear
5:55 AM 70.3 °F - 65.3 °F 84% 29.98 in 7.0 mi WSW 3.5 mph - N/A   Clear
6:15 AM 70.3 °F - 65.3 °F 84% 29.98 in 7.0 mi WSW 4.6 mph - N/A   Clear
6:35 AM 70.3 °F - 65.3 °F 84% 29.99 in 5.0 mi WSW 4.6 mph - N/A   Haze
6:55 AM 70.3 °F - 65.3 °F 84% 29.99 in 5.0 mi SW 4.6 mph - N/A   Haze
7:15 AM 70.3 °F - 65.3 °F 84% 29.99 in 5.0 mi SW 4.6 mph - N/A   Haze
7:35 AM 70.3 °F - 65.3 °F 84% 29.99 in 5.0 mi SW 4.6 mph - N/A   Haze
7:55 AM 71.4 °F - 65.7 °F 82% 29.99 in 5.0 mi SW 4.6 mph - N/A   Haze
8:15 AM 72.9 °F - 66.4 °F 80% 29.99 in 5.0 mi SW 4.6 mph - N/A   Haze
8:35 AM 75.4 °F - 68.4 °F 79% 30.00 in 7.0 mi WSW 4.6 mph - N/A   Clear
8:55 AM 74.7 °F - 68.0 °F 80% 30.00 in 5.0 mi SW 5.8 mph - N/A   Haze
9:15 AM 74.3 °F - 67.6 °F 80% 30.00 in 7.0 mi SW 6.9 mph - N/A   Clear
9:35 AM 74.3 °F - 67.8 °F 80% 30.00 in 5.0 mi SW 6.9 mph - N/A   Haze
9:55 AM 75.4 °F - 68.9 °F 80% 30.00 in 7.0 mi SSW 5.8 mph - N/A   Clear
10:15 AM 75.4 °F - 69.1 °F 81% 30.00 in 5.0 mi WSW 4.6 mph - N/A   Haze
10:35 AM 75.4 °F - 68.4 °F 79% 30.00 in 5.0 mi SW 4.6 mph - N/A   Haze
10:55 AM 77.4 °F - 68.2 °F 73% 30.00 in 7.0 mi WSW 4.6 mph - N/A   Clear
11:15 AM 77.9 °F - 67.5 °F 70% 30.00 in 10.0 mi WSW 6.9 mph - N/A   Clear
11:35 AM 77.9 °F - 67.3 °F 70% 29.99 in 7.0 mi SW 9.2 mph - N/A   Clear
11:55 AM 77.9 °F - 67.1 °F 69% 29.99 in 7.0 mi SW 9.2 mph - N/A   Clear
12:15 PM 79.2 °F - 67.6 °F 68% 29.99 in 7.0 mi SW 6.9 mph - N/A   Scattered Clouds
12:35 PM 80.6 °F 83.1 °F 67.5 °F 64% 29.98 in 10.0 mi SSW 6.9 mph - N/A   Scattered Clouds
12:55 PM 81.5 °F 83.9 °F 66.9 °F 61% 29.97 in 10.0 mi South 8.1 mph - N/A   Clear
1:15 PM 81.7 °F 84.3 °F 67.6 °F 62% 29.97 in 10.0 mi WSW 10.4 mph - N/A   Clear
1:35 PM 80.6 °F 83.5 °F 68.5 °F 67% 29.97 in 7.0 mi SW 9.2 mph - N/A   Clear
1:55 PM 80.6 °F 83.4 °F 68.4 °F 66% 29.98 in 7.0 mi WSW 11.5 mph - N/A   Clear
2:16 PM 81.3 °F 84.3 °F 68.7 °F 65% 29.97 in 10.0 mi SW 10.4 mph - N/A   Clear
2:35 PM 80.6 °F 83.5 °F 68.9 °F 67% 29.96 in 10.0 mi SSW 9.2 mph - N/A   Clear
2:55 PM 77.9 °F - 67.6 °F 71% 29.97 in 10.0 mi WSW 6.9 mph - N/A   Clear
3:15 PM 75.4 °F - 66.7 °F 74% 29.96 in 7.0 mi SW 9.2 mph - N/A   Clear
3:35 PM 75.4 °F - 66.9 °F 75% 29.96 in 7.0 mi SW 9.2 mph - N/A   Clear
3:55 PM 75.4 °F - 66.9 °F 75% 29.96 in 7.0 mi WSW 9.2 mph - N/A   Clear
4:15 PM 75.4 °F - 67.1 °F 75% 29.96 in 7.0 mi SW 8.1 mph - N/A   Clear
4:35 PM 75.4 °F - 67.1 °F 75% 29.96 in 7.0 mi SW 9.2 mph - N/A   Clear
4:55 PM 75.4 °F - 67.3 °F 76% 29.96 in 7.0 mi SW 8.1 mph - N/A   Clear
5:15 PM 75.4 °F - 67.1 °F 75% 29.96 in 7.0 mi SSW 5.8 mph - N/A   Clear
5:35 PM 75.4 °F - 66.9 °F 75% 29.96 in 7.0 mi South 5.8 mph - N/A   Clear
5:55 PM 75.4 °F - 66.7 °F 74% 29.96 in 10.0 mi South 4.6 mph - N/A   Scattered Clouds
6:15 PM 75.4 °F - 66.2 °F 73% 29.95 in 10.0 mi South 4.6 mph - N/A   Mostly Cloudy
6:35 PM 76.3 °F - 66.7 °F 72% 29.95 in 10.0 mi SSW 5.8 mph - N/A   Mostly Cloudy
6:55 PM 77.9 °F - 66.9 °F 69% 29.95 in 10.0 mi SSW 6.9 mph - N/A   Overcast
7:15 PM 77.9 °F - 66.4 °F 68% 29.96 in 10.0 mi SSW 5.8 mph - N/A   Mostly Cloudy
7:35 PM 77.9 °F - 65.1 °F 65% 29.96 in 10.0 mi South 6.9 mph - N/A   Mostly Cloudy
7:55 PM 77.9 °F - 65.1 °F 65% 29.96 in 10.0 mi SSW 10.4 mph - N/A   Scattered Clouds
8:15 PM 75.4 °F - 63.5 °F 66% 29.95 in 10.0 mi South 5.8 mph - N/A   Scattered Clouds
8:34 PM 75.4 °F - 63.7 °F 67% 29.95 in 10.0 mi SSW 6.9 mph - N/A   Mostly Cloudy
8:55 PM 75.4 °F - 64.0 °F 68% 29.95 in 10.0 mi South 5.8 mph - N/A   Mostly Cloudy
9:15 PM 75.4 °F - 63.9 °F 67% 29.95 in 10.0 mi South 6.9 mph - N/A   Scattered Clouds
9:35 PM 75.4 °F - 64.4 °F 69% 29.95 in 10.0 mi South 5.8 mph - N/A   Mostly Cloudy
9:55 PM 75.4 °F - 64.4 °F 69% 29.96 in 10.0 mi South 4.6 mph - N/A   Overcast
10:14 PM 75.4 °F - 64.4 °F 69% 29.96 in 10.0 mi South 5.8 mph - N/A   Overcast
10:35 PM 75.4 °F - 64.6 °F 69% 29.96 in 10.0 mi South 8.1 mph - N/A   Scattered Clouds
10:55 PM 75.4 °F - 65.1 °F 70% 29.96 in 10.0 mi South 6.9 mph - N/A   Clear
11:15 PM 75.4 °F - 65.3 °F 71% 29.96 in 10.0 mi South 4.6 mph - N/A   Clear
11:35 PM 75.4 °F - 64.9 °F 70% 29.96 in 10.0 mi South 5.8 mph - N/A   Scattered Clouds
11:55 PM 75.4 °F - 65.3 °F 71% 29.96 in 10.0 mi SSE 4.6 mph - N/A   Scattered Clouds